Погода в Тегеране

Иран     35°39′42″N   51°22′03″E
темп.,
°C
ветер,
м/с
пор.,
м/с
влажн.,
%
обл.,
%
осадки,
мм/ч
давл.,
гПа
погр.,
м
14 июня, пн
пн1401:30+29сз56130 0.0 1003244
04:30+26ссз56160 0.0 1004166
07:30+27сз44160 0.0 1005186
10:30+30з34120 0.0 1006993
13:30+32ююз3380 0.0 10052044
16:30+33юз4370 0.0 10042309
19:30+32з5480 0.0 10041462
22:30+30сз33180 0.0 1006688
15 июня, вт
вт1501:30+28ссз12160 0.0 1006197
04:30+26юв46240 0.0 1008621
07:30+26юв34300 0.0 1010769
10:30+28ююв33270 0.0 10091213
13:30+31ююв33200 0.0 10071519
16:30+33ююв32150 0.0 10041944
19:30+32ююв11140 0.0 10041677
22:30+32ююв23150 0.0 1005717
16 июня, ср
ср1601:30+30св12160 0.0 1005254
04:30+29юз11180 0.0 1006123
07:30+28зюз21220 0.0 1008278
10:30+30ююз33170 0.0 10081166
13:30+33ююв44140 0.0 10061932
16:30+34ююв44120 0.0 10042262
19:30+34ююв43120 0.0 10042205
22:30+32юв45120 0.0 10061230
17 июня, чт
чт1701:30+30ююв46120 0.0 10071155
04:30+28ююв13140 0.0 1007567
07:30+28ю22150 0.0 1008457
10:30+30ююв33140 0.0 1009914
13:30+32юв44110 0.0 10071346
16:30+35юв4490 0.0 10041582
19:30+34юв3390 0.0 10041422
22:30+32ююв44100 0.0 1006843
18 июня, пт
пт1801:30+30ююв35110 0.0 1006822
04:30+28ююв02110 0.0 1007267
07:30+29зюз22110 0.0 1008352
10:30+31ююв3380 0.0 10081064
13:30+33юв5570 0.0 10071780
16:30+35юв5580 0.0 10052263
19:30+34юв6680 0.0 10042328
22:30+32юв4694 0.0 10071145